Hourly Data Report for July 07, 2021

CARIBOU POINT (AUT)
NOVA SCOTIA
Current Station Operator: ECCC - MSC

45°46'00.000" N
62°41'00.000" W
2.40 m
8200774
71415
WBK

Download Data

Hourly Data (July 2021)
Hourly Data Report for July 7, 2021
TIME
LST
Temp Definition
°C
Dew Point Definition
°C
Rel Hum Definition
%
Precip. Amount Definition
mm

Wind Dir Definition
10's deg

Wind Spd Definition
km/h
Visibility Definition
km
Stn Press Definition
kPa
Hmdx Definition


Wind Chill Definition


Weather Definition


00:00 18.3 16.8 91 0.0 22 11   100.52     LegendNANA
01:00 18.9 17.3 91 0.0 24 7   100.50     LegendNANA
02:00 18.8 17.2 91 0.0 22 11   100.44     LegendNANA
03:00 18.7 17.3 92 0.0 21 14   100.41     LegendNANA
04:00 18.7 17.4 92 0.0 21 15   100.40     LegendNANA
05:00 18.8 17.5 92 0.0 22 12   100.44     LegendNANA
06:00 18.7 17.3 92 0.0 21 7   100.47     LegendNANA
07:00 21.6 18.8 84 0.0 23 12   100.46 28   LegendNANA
08:00 22.6 19.2 81 0.0 24 9   100.51 30   LegendNANA
09:00 23.5 19.6 79 0.0 24 11   100.51 31   LegendNANA
10:00 19.8 17.3 86 0.0 31 19   100.54     LegendNANA
11:00 19.0 16.0 83 0.0 31 32   100.58     LegendNANA
12:00 20.1 16.6 80 0.0 30 22   100.58 25   LegendNANA
13:00 20.6 17.1 81 0.0 29 19   100.62 26   LegendNANA
14:00 20.9 16.0 74 0.0 30 20   100.63 26   LegendNANA
15:00 20.7 16.0 74 0.0 30 14   100.70 25   LegendNANA
16:00 20.6 15.2 71 0.0 31 20   100.75 25   LegendNANA
17:00 20.2 16.1 77 0.0 29 16   100.81 25   LegendNANA
18:00 18.4 15.4 83 0.0 11 20   100.91     LegendNANA
19:00 17.0 14.5 85 0.0 13 14   101.02     LegendNANA
20:00 16.1 14.0 87 0.0 8 12   101.12     LegendNANA
21:00 15.6 13.4 87 0.0 7 6   101.28     LegendNANA
22:00 16.5 12.1 75 0.0 3 7   101.35     LegendNANA
23:00 15.9 11.1 73 0.0 31 6   101.40     LegendNANA

Notes on Data Quality.

Legend

  • E = Estimated
  • M = Missing
  • NA = Not Available*
  • [empty] = Indicates an unobserved value
Date modified: